SKW782 KLAS-KBOI

Flight info

Callsign SKW782
Flight time 1h 25m
Altitude 40000
Route RATPK3 FRNCK CRITO SPATS BROPH SPUUD4
Aircraft B789/H-SDE1E2E3FGHIJ2J3J4J5M1RWXY/LB1D1

Departure

Time 2026-05-07 04:05
Airport Harry Reid International Airport (KLAS)

Arrival

Time 2026-05-07 05:30
Airport Boise Air Terminal/Gowen Field (KBOI)
Time Latitude Longitude Altitude Speed Heading
2026-05-07 03:35 36.07992 -115.13472 2093 ft 0 kts 315°
2026-05-07 03:55 36.07987 -115.13466 2093 ft 4 kts 312°
2026-05-07 03:55 36.07972 -115.13439 2091 ft 4 kts 293°
2026-05-07 03:56 36.07964 -115.13408 2090 ft 4 kts 285°
2026-05-07 03:56 36.07955 -115.13377 2089 ft 4 kts 306°
2026-05-07 03:56 36.07956 -115.13375 2089 ft 4 kts 327°
2026-05-07 03:56 36.07982 -115.13377 2088 ft 4 kts
2026-05-07 03:57 36.08008 -115.13372 2089 ft 4 kts
2026-05-07 03:57 36.08039 -115.13371 2089 ft 2 kts 181°
2026-05-07 04:00 36.08033 -115.13371 2089 ft 4 kts 181°
2026-05-07 04:00 36.07964 -115.13371 2088 ft 15 kts 180°
2026-05-07 04:00 36.07853 -115.13371 2087 ft 17 kts 180°
2026-05-07 04:00 36.07762 -115.13323 2084 ft 14 kts 113°
2026-05-07 04:01 36.07754 -115.13176 2077 ft 20 kts 90°
2026-05-07 04:01 36.07752 -115.12985 2070 ft 24 kts 88°
2026-05-07 04:01 36.07753 -115.12759 2061 ft 29 kts 90°
2026-05-07 04:01 36.07751 -115.12503 2054 ft 31 kts 91°
2026-05-07 04:02 36.07750 -115.12249 2047 ft 22 kts 90°
2026-05-07 04:02 36.07746 -115.12176 2046 ft 0 kts 104°
2026-05-07 04:02 36.07738 -115.12152 2050 ft 8 kts 117°
2026-05-07 04:02 36.07673 -115.12129 2049 ft 11 kts 198°
2026-05-07 04:03 36.07642 -115.12211 2051 ft 0 kts 266°
2026-05-07 04:03 36.07642 -115.12213 2051 ft 0 kts 267°
2026-05-07 04:04 36.07642 -115.12635 2061 ft 97 kts 270°
2026-05-07 04:04 36.07641 -115.13832 2096 ft 179 kts 270°
2026-05-07 04:04 36.07662 -115.15607 2573 ft 213 kts 277°
2026-05-07 04:05 36.07703 -115.17368 4042 ft 206 kts 269°
2026-05-07 04:05 36.07655 -115.19249 4918 ft 234 kts 268°
2026-05-07 04:05 36.07631 -115.21348 5849 ft 261 kts 270°
2026-05-07 04:05 36.07640 -115.23712 6831 ft 287 kts 272°
2026-05-07 04:06 36.08114 -115.26122 8137 ft 289 kts 299°
2026-05-07 04:06 36.09326 -115.28035 9564 ft 290 kts 324°
2026-05-07 04:06 36.11120 -115.29141 10908 ft 292 kts 346°
2026-05-07 04:06 36.13156 -115.29422 12038 ft 299 kts
2026-05-07 04:07 36.15160 -115.28629 13362 ft 304 kts 30°
2026-05-07 04:07 36.16766 -115.26906 14563 ft 310 kts 52°
2026-05-07 04:07 36.17716 -115.24541 15735 ft 317 kts 69°
2026-05-07 04:07 36.18508 -115.21955 16866 ft 321 kts 65°
2026-05-07 04:08 36.19350 -115.19363 18038 ft 326 kts 71°
2026-05-07 04:08 36.19618 -115.16541 19056 ft 334 kts 85°
2026-05-07 04:08 36.19644 -115.13655 20104 ft 336 kts 87°
2026-05-07 04:08 36.19623 -115.10783 21080 ft 336 kts 87°
2026-05-07 04:09 36.19612 -115.07883 22140 ft 336 kts 86°
2026-05-07 04:09 36.19619 -115.04980 23196 ft 336 kts 86°
2026-05-07 04:09 36.19626 -115.02084 24115 ft 336 kts 86°
2026-05-07 04:09 36.19624 -114.99231 24967 ft 335 kts 86°
2026-05-07 04:10 36.19620 -114.96332 25815 ft 334 kts 86°
2026-05-07 04:10 36.19618 -114.93456 26666 ft 333 kts 86°
2026-05-07 04:10 36.19646 -114.90585 27474 ft 331 kts 80°
2026-05-07 04:10 36.20197 -114.87896 28207 ft 324 kts 63°
2026-05-07 04:11 36.21341 -114.85526 28973 ft 320 kts 48°
2026-05-07 04:11 36.22749 -114.83392 29759 ft 319 kts 49°
2026-05-07 04:11 36.24162 -114.81277 30420 ft 318 kts 48°
2026-05-07 04:11 36.25576 -114.79165 31035 ft 318 kts 48°
2026-05-07 04:12 36.26966 -114.77072 31612 ft 317 kts 48°
2026-05-07 04:12 36.28365 -114.74962 32158 ft 315 kts 48°
2026-05-07 04:12 36.29759 -114.72862 32665 ft 315 kts 48°
2026-05-07 04:12 36.30680 -114.71475 32996 ft 315 kts 48°
2026-05-07 04:13 36.32066 -114.69385 33468 ft 315 kts 48°
2026-05-07 04:13 36.33467 -114.67271 33909 ft 315 kts 48°
2026-05-07 04:13 36.34861 -114.65168 34280 ft 316 kts 48°
2026-05-07 04:13 36.36258 -114.63059 34624 ft 316 kts 47°
2026-05-07 04:14 36.37880 -114.61237 34902 ft 315 kts 34°
2026-05-07 04:14 36.39681 -114.59565 34896 ft 329 kts 37°
2026-05-07 04:14 36.41524 -114.57773 34923 ft 342 kts 36°
2026-05-07 04:15 36.45359 -114.54137 35590 ft 346 kts 36°
2026-05-07 04:15 36.47260 -114.52338 36180 ft 340 kts 36°
2026-05-07 04:15 36.49132 -114.50556 36755 ft 334 kts 36°
2026-05-07 04:15 36.50963 -114.48812 37313 ft 328 kts 36°
2026-05-07 04:16 36.52727 -114.47135 37968 ft 316 kts 35°
2026-05-07 04:16 36.54463 -114.45508 38553 ft 306 kts 30°
2026-05-07 04:16 36.56273 -114.44148 38825 ft 302 kts 30°
2026-05-07 04:17 36.59827 -114.41364 39008 ft 305 kts 30°
2026-05-07 04:17 36.61639 -114.39964 39110 ft 307 kts 30°
2026-05-07 04:17 36.63467 -114.38554 39256 ft 310 kts 30°
2026-05-07 04:17 36.65293 -114.37139 39364 ft 313 kts 30°
2026-05-07 04:18 36.67153 -114.35694 39481 ft 315 kts 30°
2026-05-07 04:18 36.69028 -114.34238 39598 ft 316 kts 30°
2026-05-07 04:18 36.70895 -114.32789 39718 ft 317 kts 30°
2026-05-07 04:18 36.72748 -114.31350 39845 ft 318 kts 30°
2026-05-07 04:19 36.74644 -114.29877 39932 ft 321 kts 30°
2026-05-07 04:19 36.78481 -114.26891 39927 ft 331 kts 30°
2026-05-07 04:20 36.82467 -114.23788 39947 ft 343 kts 30°
2026-05-07 04:20 36.86593 -114.20569 39956 ft 356 kts 30°
2026-05-07 04:21 36.90890 -114.17213 39958 ft 370 kts 30°
2026-05-07 04:21 36.93068 -114.15510 39958 ft 377 kts 30°
2026-05-07 04:21 36.97613 -114.11953 39984 ft 392 kts 30°
2026-05-07 04:22 37.02298 -114.08281 39983 ft 406 kts 30°
2026-05-07 04:22 37.07163 -114.04462 39999 ft 421 kts 30°
2026-05-07 04:23 37.09780 -114.02808 40020 ft 424 kts 17°
2026-05-07 04:23 37.12664 -114.01984 40017 ft 428 kts
2026-05-07 04:23 37.18696 -114.02563 40022 ft 442 kts 348°
2026-05-07 04:24 37.24795 -114.04182 40027 ft 455 kts 350°
2026-05-07 04:24 37.31075 -114.05610 40027 ft 465 kts 349°
2026-05-07 04:25 37.37487 -114.07207 40028 ft 474 kts 349°
2026-05-07 04:25 37.43990 -114.08754 40064 ft 475 kts 349°
2026-05-07 04:26 37.50448 -114.10333 40066 ft 474 kts 349°
2026-05-07 04:26 37.56904 -114.11895 40081 ft 470 kts 349°
2026-05-07 04:27 37.63344 -114.13464 40071 ft 471 kts 349°
2026-05-07 04:27 37.69766 -114.15027 40074 ft 472 kts 349°
2026-05-07 04:28 37.76209 -114.16601 40081 ft 471 kts 349°
2026-05-07 04:28 37.82653 -114.18177 40083 ft 471 kts 349°
2026-05-07 04:29 37.89113 -114.19759 40087 ft 471 kts 349°
2026-05-07 04:29 37.95512 -114.21330 40095 ft 470 kts 348°
2026-05-07 04:30 38.01935 -114.22909 40095 ft 468 kts 348°
2026-05-07 04:30 38.08320 -114.24481 40101 ft 470 kts 348°
2026-05-07 04:31 38.14745 -114.26067 40094 ft 470 kts 348°
2026-05-07 04:31 38.21141 -114.27648 40088 ft 470 kts 348°
2026-05-07 04:32 38.27545 -114.29234 40092 ft 471 kts 348°
2026-05-07 04:32 38.34004 -114.30835 40094 ft 469 kts 348°
2026-05-07 04:33 38.40406 -114.32428 40098 ft 468 kts 348°
2026-05-07 04:33 38.46798 -114.34018 40100 ft 473 kts 348°
2026-05-07 04:34 38.53280 -114.35634 40095 ft 473 kts 347°
2026-05-07 04:34 38.59714 -114.37243 40098 ft 469 kts 347°
2026-05-07 04:35 38.66115 -114.38845 40072 ft 467 kts 348°
2026-05-07 04:35 38.72477 -114.40440 40093 ft 469 kts 347°
2026-05-07 04:36 38.78911 -114.42058 40099 ft 471 kts 347°
2026-05-07 04:36 38.85356 -114.43679 40102 ft 472 kts 347°
2026-05-07 04:37 38.91756 -114.45293 40114 ft 470 kts 347°
2026-05-07 04:37 38.98196 -114.46918 40095 ft 469 kts 347°
2026-05-07 04:38 39.04604 -114.48543 40092 ft 468 kts 347°
2026-05-07 04:38 39.10993 -114.50131 40127 ft 469 kts 351°
2026-05-07 04:39 39.17526 -114.50825 40067 ft 466 kts 353°
2026-05-07 04:39 39.20735 -114.51149 39242 ft 469 kts 353°
2026-05-07 04:39 39.24002 -114.51466 38485 ft 469 kts 353°
2026-05-07 04:40 39.27264 -114.51783 37561 ft 469 kts 354°
2026-05-07 04:40 39.30528 -114.52106 36583 ft 471 kts 354°
2026-05-07 04:40 39.33802 -114.52431 35633 ft 473 kts 354°
2026-05-07 04:40 39.37046 -114.52751 34720 ft 474 kts 355°
2026-05-07 04:41 39.40338 -114.53075 33769 ft 473 kts 355°
2026-05-07 04:41 39.43607 -114.53398 33027 ft 466 kts 355°
2026-05-07 04:41 39.46842 -114.53718 32252 ft 462 kts 355°
2026-05-07 04:41 39.50037 -114.54034 31511 ft 458 kts 355°
2026-05-07 04:42 39.53206 -114.54349 30831 ft 453 kts 355°
2026-05-07 04:42 39.56303 -114.54656 30141 ft 449 kts 355°
2026-05-07 04:42 39.59413 -114.54965 29331 ft 445 kts 355°
2026-05-07 04:42 39.62495 -114.55272 28359 ft 441 kts 355°
2026-05-07 04:43 39.65576 -114.55580 27340 ft 452 kts 355°
2026-05-07 04:43 39.68771 -114.55897 27098 ft 467 kts 355°
2026-05-07 04:43 39.72063 -114.56225 27108 ft 478 kts 355°
2026-05-07 04:43 39.75426 -114.56560 27104 ft 489 kts 355°
2026-05-07 04:44 39.78854 -114.56904 27105 ft 497 kts 355°
2026-05-07 04:44 39.82277 -114.57246 27099 ft 500 kts 355°
2026-05-07 04:44 39.85759 -114.57593 27100 ft 500 kts 355°
2026-05-07 04:44 39.89246 -114.57943 27103 ft 501 kts 355°
2026-05-07 04:45 39.92718 -114.58291 27101 ft 500 kts 355°
2026-05-07 04:45 39.96196 -114.58641 27104 ft 501 kts 355°
2026-05-07 04:45 39.99641 -114.58987 27091 ft 501 kts 355°
2026-05-07 04:45 40.03131 -114.59337 27101 ft 501 kts 355°
2026-05-07 04:46 40.06626 -114.59690 27095 ft 502 kts 355°
2026-05-07 04:46 40.10115 -114.60042 27104 ft 502 kts 355°
2026-05-07 04:46 40.13559 -114.60389 27101 ft 502 kts 355°
2026-05-07 04:46 40.17051 -114.60742 27102 ft 501 kts 355°
2026-05-07 04:47 40.20503 -114.61091 27103 ft 501 kts 355°
2026-05-07 04:47 40.23979 -114.61443 27100 ft 502 kts 355°
2026-05-07 04:47 40.27476 -114.61797 27100 ft 501 kts 355°
2026-05-07 04:47 40.30956 -114.62150 27107 ft 501 kts 355°
2026-05-07 04:48 40.34434 -114.62503 27105 ft 500 kts 355°
2026-05-07 04:48 40.37902 -114.62856 27105 ft 500 kts 355°
2026-05-07 04:48 40.41339 -114.63206 27106 ft 501 kts 355°
2026-05-07 04:48 40.44832 -114.63562 27105 ft 502 kts 355°
2026-05-07 04:49 40.48319 -114.63917 27106 ft 502 kts 355°
2026-05-07 04:49 40.51807 -114.64272 27110 ft 501 kts 354°
2026-05-07 04:49 40.55248 -114.64624 27104 ft 500 kts 354°
2026-05-07 04:49 40.58714 -114.64980 27102 ft 500 kts 354°
2026-05-07 04:50 40.62193 -114.65336 27106 ft 499 kts 354°
2026-05-07 04:50 40.65654 -114.65689 27105 ft 499 kts 354°
2026-05-07 04:50 40.69124 -114.66046 27105 ft 499 kts 354°
2026-05-07 04:50 40.72600 -114.66403 27105 ft 498 kts 354°
2026-05-07 04:51 40.76057 -114.66758 27105 ft 498 kts 354°
2026-05-07 04:51 40.79474 -114.67111 27106 ft 499 kts 354°
2026-05-07 04:51 40.82949 -114.67469 27105 ft 499 kts 354°
2026-05-07 04:51 40.86431 -114.67828 27101 ft 499 kts 354°
2026-05-07 04:52 40.89892 -114.68185 27099 ft 498 kts 354°
2026-05-07 04:52 40.93312 -114.68538 27105 ft 497 kts 354°
2026-05-07 04:52 40.96766 -114.68896 27099 ft 498 kts 354°
2026-05-07 04:52 41.00216 -114.69253 27099 ft 498 kts 354°
2026-05-07 04:53 41.03677 -114.69612 27096 ft 497 kts 354°
2026-05-07 04:53 41.07126 -114.69970 27095 ft 497 kts 354°
2026-05-07 04:53 41.10582 -114.70329 27099 ft 497 kts 354°
2026-05-07 04:53 41.14031 -114.70687 27094 ft 496 kts 354°
2026-05-07 04:54 41.17430 -114.71042 27090 ft 497 kts 354°
2026-05-07 04:54 41.20879 -114.71402 27090 ft 496 kts 354°
2026-05-07 04:54 41.24348 -114.71763 27090 ft 496 kts 354°
2026-05-07 04:54 41.27752 -114.72119 27089 ft 496 kts 354°
2026-05-07 04:55 41.31202 -114.72479 27087 ft 495 kts 354°
2026-05-07 04:55 41.34634 -114.72839 27077 ft 494 kts 354°
2026-05-07 04:55 41.38077 -114.73200 27079 ft 495 kts 354°
2026-05-07 04:55 41.41525 -114.73561 27079 ft 495 kts 354°
2026-05-07 04:56 41.44925 -114.73918 27075 ft 495 kts 354°
2026-05-07 04:56 41.48365 -114.74279 27077 ft 495 kts 354°
2026-05-07 04:56 41.51801 -114.74641 27071 ft 493 kts 353°
2026-05-07 04:56 41.55192 -114.74998 27086 ft 494 kts 354°
2026-05-07 04:57 41.58623 -114.75361 27080 ft 494 kts 354°
2026-05-07 04:57 41.62053 -114.75723 27079 ft 493 kts 354°
2026-05-07 04:57 41.65447 -114.76081 27076 ft 494 kts 353°
2026-05-07 04:57 41.68885 -114.76444 27093 ft 494 kts 353°
2026-05-07 04:58 41.72333 -114.76809 27081 ft 495 kts 353°
2026-05-07 04:58 41.75764 -114.77174 27078 ft 494 kts 353°
2026-05-07 04:58 41.78032 -114.77415 27075 ft 494 kts 353°
2026-05-07 04:58 41.81475 -114.77780 27068 ft 493 kts 353°
2026-05-07 04:59 41.86012 -114.78262 27075 ft 493 kts 353°
2026-05-07 04:59 41.89443 -114.78627 27073 ft 493 kts 353°
2026-05-07 04:59 41.91722 -114.78870 27063 ft 493 kts 353°
2026-05-07 04:59 41.95151 -114.79238 27060 ft 493 kts 353°
2026-05-07 05:00 41.98572 -114.79602 27061 ft 493 kts 353°
2026-05-07 05:00 42.01998 -114.79968 27059 ft 493 kts 353°
2026-05-07 05:00 42.05379 -114.80329 27056 ft 493 kts 353°
2026-05-07 05:00 42.08811 -114.80697 27051 ft 493 kts 353°
2026-05-07 05:01 42.12235 -114.81069 27063 ft 494 kts 353°
2026-05-07 05:01 42.15659 -114.81434 27056 ft 493 kts 353°
2026-05-07 05:01 42.19092 -114.81799 27049 ft 494 kts 353°
2026-05-07 05:01 42.22516 -114.82168 27075 ft 494 kts 353°
2026-05-07 05:02 42.25937 -114.82538 27055 ft 493 kts 353°
2026-05-07 05:02 42.29324 -114.82904 27058 ft 492 kts 353°
2026-05-07 05:02 42.32747 -114.83272 27053 ft 493 kts 353°
2026-05-07 05:02 42.36179 -114.83643 27057 ft 493 kts 353°
2026-05-07 05:03 42.39571 -114.84010 27054 ft 492 kts 353°
2026-05-07 05:03 42.42986 -114.84380 27058 ft 493 kts 353°
2026-05-07 05:03 42.46419 -114.84753 27055 ft 493 kts 353°
2026-05-07 05:03 42.49842 -114.85124 27054 ft 494 kts 353°
2026-05-07 05:04 42.53229 -114.85492 27046 ft 494 kts 353°
2026-05-07 05:04 42.56660 -114.85865 27044 ft 494 kts 353°
2026-05-07 05:04 42.60113 -114.86241 27043 ft 494 kts 353°
2026-05-07 05:04 42.63540 -114.86616 27027 ft 493 kts 352°
2026-05-07 05:05 42.66881 -114.87369 27013 ft 490 kts 344°
2026-05-07 05:05 42.70115 -114.88783 27011 ft 487 kts 336°
2026-05-07 05:05 42.73156 -114.90825 27012 ft 486 kts 329°
2026-05-07 05:05 42.75939 -114.93447 27006 ft 487 kts 321°
2026-05-07 05:06 42.78407 -114.96566 26814 ft 476 kts 315°
2026-05-07 05:06 42.80716 -114.99830 25453 ft 477 kts 313°
2026-05-07 05:06 42.82890 -115.03025 25358 ft 451 kts 313°
2026-05-07 05:06 42.84977 -115.06056 25337 ft 426 kts 314°
2026-05-07 05:07 42.86978 -115.08908 25304 ft 405 kts 314°
2026-05-07 05:07 42.88856 -115.11598 25277 ft 386 kts 313°
2026-05-07 05:07 42.90657 -115.14209 25249 ft 368 kts 313°
2026-05-07 05:07 42.92382 -115.16709 25201 ft 352 kts 313°
2026-05-07 05:08 42.94028 -115.19092 24975 ft 342 kts 313°
2026-05-07 05:08 42.95671 -115.21476 24241 ft 347 kts 313°
2026-05-07 05:08 42.97355 -115.23923 23347 ft 357 kts 313°
2026-05-07 05:08 42.99073 -115.26420 22351 ft 364 kts 312°
2026-05-07 05:09 43.00805 -115.28940 21387 ft 369 kts 312°
2026-05-07 05:09 43.02581 -115.31524 20445 ft 373 kts 312°
2026-05-07 05:09 43.04361 -115.34120 19571 ft 375 kts 312°
2026-05-07 05:09 43.06153 -115.36733 18694 ft 377 kts 312°
2026-05-07 05:10 43.07934 -115.39331 17806 ft 377 kts 312°
2026-05-07 05:10 43.09711 -115.41928 16847 ft 376 kts 312°
2026-05-07 05:10 43.11511 -115.44561 15903 ft 375 kts 312°
2026-05-07 05:10 43.13288 -115.47162 15006 ft 374 kts 312°
2026-05-07 05:11 43.15060 -115.49759 14131 ft 376 kts 312°
2026-05-07 05:11 43.16879 -115.52421 13206 ft 383 kts 312°
2026-05-07 05:11 43.18673 -115.55042 12265 ft 379 kts 312°
2026-05-07 05:11 43.20463 -115.57664 11374 ft 375 kts 312°
2026-05-07 05:12 43.22212 -115.60232 10985 ft 358 kts 312°
2026-05-07 05:12 43.23854 -115.62640 10971 ft 332 kts 312°
2026-05-07 05:12 43.25378 -115.64875 10964 ft 309 kts 312°
2026-05-07 05:12 43.26793 -115.66956 10933 ft 291 kts 311°
2026-05-07 05:13 43.27917 -115.69234 10605 ft 285 kts 296°
2026-05-07 05:13 43.28813 -115.71642 10229 ft 280 kts 297°
2026-05-07 05:13 43.29683 -115.73965 9839 ft 275 kts 297°
2026-05-07 05:13 43.30553 -115.76289 9422 ft 272 kts 297°
2026-05-07 05:14 43.31417 -115.78602 9011 ft 271 kts 297°
2026-05-07 05:14 43.32281 -115.80914 8616 ft 271 kts 297°
2026-05-07 05:14 43.33144 -115.83227 8233 ft 272 kts 297°
2026-05-07 05:14 43.33995 -115.85508 7966 ft 268 kts 296°
2026-05-07 05:15 43.34841 -115.87784 7967 ft 269 kts 297°
2026-05-07 05:15 43.35700 -115.90091 7689 ft 271 kts 297°
2026-05-07 05:15 43.36563 -115.92409 7415 ft 272 kts 297°
2026-05-07 05:15 43.37422 -115.94721 7189 ft 271 kts 297°
2026-05-07 05:16 43.38272 -115.97009 6969 ft 271 kts 297°
2026-05-07 05:16 43.39124 -115.99306 6977 ft 270 kts 296°
2026-05-07 05:16 43.39978 -116.01610 6983 ft 269 kts 296°
2026-05-07 05:16 43.40801 -116.03832 6961 ft 250 kts 296°
2026-05-07 05:17 43.41562 -116.05885 6962 ft 234 kts 296°
2026-05-07 05:17 43.42291 -116.07856 6965 ft 229 kts 296°
2026-05-07 05:17 43.43009 -116.09801 6974 ft 227 kts 296°
2026-05-07 05:17 43.43723 -116.11734 6975 ft 227 kts 296°
2026-05-07 05:18 43.44424 -116.13633 6967 ft 221 kts 296°
2026-05-07 05:18 43.45123 -116.15528 6983 ft 225 kts 296°
2026-05-07 05:18 43.45831 -116.17450 6989 ft 225 kts 296°
2026-05-07 05:18 43.46529 -116.19371 6993 ft 227 kts 294°
2026-05-07 05:19 43.47156 -116.21372 6989 ft 226 kts 296°
2026-05-07 05:19 43.47867 -116.23310 6995 ft 227 kts 296°
2026-05-07 05:19 43.48555 -116.25269 6972 ft 227 kts 295°
2026-05-07 05:19 43.49216 -116.27227 6976 ft 227 kts 295°
2026-05-07 05:20 43.49877 -116.29195 6974 ft 224 kts 296°
2026-05-07 05:20 43.50519 -116.31106 6404 ft 222 kts 296°
2026-05-07 05:20 43.51171 -116.33047 5724 ft 224 kts 295°
2026-05-07 05:20 43.51830 -116.35001 5111 ft 223 kts 295°
2026-05-07 05:21 43.52472 -116.36892 5007 ft 219 kts 295°
2026-05-07 05:21 43.53799 -116.40770 5023 ft 225 kts 296°
2026-05-07 05:21 43.54466 -116.42701 5029 ft 226 kts 295°
2026-05-07 05:22 43.55143 -116.44670 5027 ft 226 kts 296°
2026-05-07 05:22 43.55817 -116.46629 5030 ft 225 kts 295°
2026-05-07 05:22 43.56491 -116.48590 5029 ft 226 kts 296°
2026-05-07 05:22 43.57159 -116.50533 5026 ft 227 kts 296°
2026-05-07 05:23 43.57836 -116.52495 5026 ft 226 kts 295°
2026-05-07 05:23 43.58514 -116.54466 5028 ft 226 kts 296°
2026-05-07 05:23 43.59193 -116.56434 5021 ft 227 kts 296°
2026-05-07 05:23 43.60063 -116.58237 4951 ft 227 kts 323°
2026-05-07 05:24 43.61507 -116.58856 5005 ft 228 kts
2026-05-07 05:24 43.63048 -116.58278 5024 ft 229 kts 20°
2026-05-07 05:24 43.64531 -116.57419 5021 ft 230 kts 22°
2026-05-07 05:24 43.65993 -116.56524 5023 ft 230 kts 23°
2026-05-07 05:25 43.67426 -116.55574 4995 ft 222 kts 32°
2026-05-07 05:25 43.68272 -116.53928 4745 ft 214 kts 78°
2026-05-07 05:25 43.68088 -116.51955 4378 ft 212 kts 120°
2026-05-07 05:25 43.67042 -116.50596 3980 ft 207 kts 148°
2026-05-07 05:26 43.65908 -116.49500 4044 ft 199 kts 138°
2026-05-07 05:26 43.64906 -116.48194 4070 ft 195 kts 132°
2026-05-07 05:26 43.64146 -116.46674 4033 ft 192 kts 114°
2026-05-07 05:26 43.63649 -116.44901 4009 ft 211 kts 103°
2026-05-07 05:27 43.63288 -116.42805 4288 ft 232 kts 107°
2026-05-07 05:27 43.62661 -116.40678 4512 ft 246 kts 118°
2026-05-07 05:27 43.61853 -116.38609 4557 ft 237 kts 113°
2026-05-07 05:27 43.61192 -116.36538 4657 ft 245 kts 114°
2026-05-07 05:28 43.60464 -116.34418 4528 ft 244 kts 115°
2026-05-07 05:28 43.59734 -116.32307 4177 ft 241 kts 115°
2026-05-07 05:28 43.59038 -116.30234 3857 ft 237 kts 114°
2026-05-07 05:28 43.58344 -116.28185 3534 ft 237 kts 115°
2026-05-07 05:29 43.57638 -116.26131 3205 ft 237 kts 115°
2026-05-07 05:29 43.56939 -116.24072 2909 ft 234 kts 113°
2026-05-07 05:29 43.56297 -116.22235 2885 ft 177 kts 123°
2026-05-07 05:29 43.55900 -116.21020 2890 ft 111 kts 114°
2026-05-07 05:30 43.55655 -116.20296 2887 ft 51 kts 115°
2026-05-07 05:30 43.55586 -116.20095 2887 ft 0 kts 115°